Weather History for Clermont Ferrand, France

Change the Weather History Date:

Wednesday, February 20, 2013

  Actual Average Record
Temperature  
Mean Temperature 36 °F -  
Max Temperature 48 °F 52 °F 73 °F (1998)
Min Temperature 23 °F 35 °F 21 °F (2009)
Degree Days  
Heating Degree Days 30    
Moisture  
Dew Point 29 °F    
Average Humidity 78    
Maximum Humidity 100    
Minimum Humidity 50    
Precipitation  
Precipitation 0.00 in - - ()
Sea Level Pressure  
Sea Level Pressure 29.96 in    
Wind  
Wind Speed 3 mph ()    
Max Wind Speed 10 mph    
Max Gust Speed -    
Visibility 4.6 miles    
Events      
Averages and records for this station are not official NWS values.
T = Trace of Precipitation, MM = Missing Value Source: Averaged Metar Reports

Daily Weather History Graph

Daily Weather History Graph

Search for Another Location

Airport:

Trip Planner

Search our weather history database for the weather conditions in past years. The results will help you decide how hot, cold, wet, or windy it might be!

Date:

Astronomy

Feb. 20, 2013 Rise Set
Actual Time 7:41 AM CET 6:21 PM CET
Civil Twilight 7:11 AM CET 6:51 PM CET
Nautical Twilight 6:36 AM CET 7:26 PM CET
Astronomical Twilight 6:02 AM CET 8:00 PM CET
Moon 1:19 PM CET (2/20) 3:59 AM CET (2/20)
Length of Visible Light 11h 40m
Length of Day
10h 39m
Waxing Gibbous, 74% of the Moon is Illuminated
Feb 20
Waxing Gibbous
Feb 25
Full
Mar 4
Last Quarter
Mar 11
New
Mar 19
First Quarter

Hourly Weather History & Observations

Time (CET) Temp. Windchill Dew Point Humidity Pressure Visibility Wind Dir Wind Speed Gust Speed Precip Events Conditions
12:00 AM 32.0 °F - 28.4 °F 87% 29.95 in - WSW 2.3 mph - N/A   Clear
12:30 AM 32.0 °F - 28.4 °F 87% 29.95 in - ENE 2.3 mph - N/A   Clear
1:30 AM 30.2 °F - 26.6 °F 86% 29.95 in 3.1 mi Variable 1.2 mph - N/A   Mist
2:00 AM 28.4 °F - 26.6 °F 93% 29.95 in 3.1 mi Calm Calm - N/A   Mist
2:30 AM 28.4 °F - 26.6 °F 93% 29.95 in 3.7 mi Calm Calm - N/A   Unknown
3:00 AM 28.4 °F - 26.6 °F 93% 29.95 in 3.1 mi Calm Calm - N/A   Mist
3:30 AM 26.6 °F 22.6 °F 24.8 °F 93% 29.95 in 4.3 mi West 3.5 mph - N/A   Unknown
4:00 AM 26.6 °F - 24.8 °F 93% 29.95 in 5.0 mi Calm Calm - N/A   Unknown
4:30 AM 26.6 °F - 24.8 °F 93% 29.95 in 5.6 mi Variable 2.3 mph - N/A   Unknown
5:00 AM 26.6 °F 22.6 °F 24.8 °F 93% 29.95 in - NNW 3.5 mph - N/A   Clear
5:30 AM 26.6 °F - 24.8 °F 93% 29.95 in - Calm Calm - N/A   Clear
6:00 AM 24.8 °F - 23.0 °F 93% 29.95 in - Calm Calm - N/A   Clear
6:30 AM 24.8 °F 20.5 °F 24.8 °F 100% 29.95 in - NNE 3.5 mph - N/A   Clear
7:00 AM 24 °F - 23 °F 92% 30.03 in 5 mi NNW 2.3 mph - -   Partly Cloudy
7:00 AM 24.8 °F - 23.0 °F 93% 29.95 in 5.0 mi Variable 2.3 mph - N/A   Unknown
7:30 AM 24.8 °F - 24.8 °F 100% 29.95 in 3.7 mi Calm Calm - N/A   Unknown
8:00 AM 24.8 °F - 23.0 °F 93% 29.98 in 2.5 mi Calm Calm - N/A   Mist
8:30 AM 26.6 °F - 24.8 °F 93% 29.98 in 1.9 mi Calm Calm - N/A   Mist
9:00 AM 28.4 °F - 28.4 °F 100% 29.98 in 1.9 mi Calm Calm - N/A   Mist
9:30 AM 32.0 °F - 30.2 °F 93% 29.98 in 1.9 mi Calm Calm - N/A   Mist
10:00 AM 33.8 °F - 28.4 °F 81% 29.98 in 2.8 mi Calm Calm - N/A   Mist
10:30 AM 35.6 °F - 30.2 °F 81% 29.98 in 3.7 mi Calm Calm - N/A   Unknown
11:00 AM 39.2 °F - 32.0 °F 75% 29.98 in 5.0 mi Variable 2.3 mph - N/A   Unknown
11:30 AM 39.2 °F - 33.8 °F 81% 29.98 in 5.0 mi Variable 2.3 mph - N/A   Unknown
12:00 PM 41.0 °F 39.0 °F 33.8 °F 76% 29.98 in - North 3.5 mph - N/A   Clear
12:30 PM 42.8 °F 41.1 °F 32.0 °F 66% 29.98 in - North 3.5 mph - N/A   Clear
1:00 PM 44 °F - 32 °F 53% 30.00 in 6 mi North 3.5 mph - -  
1:00 PM 44.6 °F 43.1 °F 32.0 °F 61% 29.98 in - North 3.5 mph - N/A   Clear
1:30 PM 46.4 °F 45.2 °F 30.2 °F 53% 29.95 in - Variable 3.5 mph - N/A   Clear
2:00 PM 46.4 °F 43.5 °F 32.0 °F 57% 29.95 in - NNE 5.8 mph - N/A   Clear
2:30 PM 46.4 °F 42.4 °F 32.0 °F 57% 29.95 in - NNE 8.1 mph - N/A   Clear
3:00 PM 48.2 °F - 33.8 °F 58% 29.92 in - NNE 6.9 mph - N/A   Clear
3:30 PM 48.2 °F - 32.0 °F 54% 29.92 in - North 6.9 mph - N/A   Clear
4:00 PM 48.2 °F - 32.0 °F 54% 29.92 in - North 10.4 mph - N/A   Clear
4:30 PM 48.2 °F - 30.2 °F 50% 29.92 in - North 10.4 mph - N/A   Clear
5:00 PM 46.4 °F 41.5 °F 32.0 °F 57% 29.92 in - North 10.4 mph - N/A   Clear
5:30 PM 44.6 °F 39.2 °F 32.0 °F 61% 29.92 in - North 10.4 mph - N/A   Clear
6:30 PM 42.8 °F 40.1 °F 32.0 °F 66% 29.92 in - NNW 4.6 mph - N/A   Clear
7:00 PM 41 °F - 31 °F 59% 29.99 in 6 mi NNW 4.6 mph - -   Clear
7:00 PM 41.0 °F 38.0 °F 32.0 °F 70% 29.95 in - NNW 4.6 mph - N/A   Clear
7:30 PM 39.2 °F 35.9 °F 32.0 °F 75% 29.95 in 6.2 mi NNW 4.6 mph - N/A   Partly Cloudy
8:00 PM 39.2 °F 35.9 °F 32.0 °F 75% 29.95 in 6.2 mi NNW 4.6 mph - N/A   Partly Cloudy
8:30 PM 39.2 °F 35.9 °F 32.0 °F 75% 29.95 in 6.2 mi NNW 4.6 mph - N/A   Partly Cloudy
9:00 PM 37.4 °F 33.8 °F 30.2 °F 75% 29.95 in 6.2 mi NNW 4.6 mph - N/A   Partly Cloudy
9:30 PM 37.4 °F 32.8 °F 30.2 °F 75% 29.95 in 5.6 mi North 5.8 mph - N/A   Scattered Clouds
10:00 PM 37.4 °F 32.8 °F 30.2 °F 75% 29.95 in 6.2 mi North 5.8 mph - N/A   Mostly Cloudy
10:30 PM 37.4 °F 33.8 °F 30.2 °F 75% 29.95 in 6.2 mi North 4.6 mph - N/A   Mostly Cloudy
11:00 PM 35.6 °F - 28.4 °F 75% 29.95 in 6.2 mi Variable 2.3 mph - N/A   Mostly Cloudy
11:30 PM 35.6 °F 30.7 °F 28.4 °F 75% 29.95 in 6.2 mi North 5.8 mph - N/A   Mostly Cloudy